GW1675 Weather Reports


time (UTC)temp
F
wind
direction
speed
knots
gust
knots
rain 1hr
in
rain 24hr
in
rain mn
in
humidity
%
barometer
mb
20260508083045 62 198 0.9 6.1 0.00 0.00 0.00 71 1013.9
20260508081549 62 198 2.6 5.2 0.00 0.00 0.00 72 1013.9
20260508080051 62 198 0.9 4.3 0.00 0.00 0.00 72 1013.7
20260508074548 61 0 2.6 4.3 0.00 0.00 0.00 72 1013.6
20260508073048 61 198 0.9 2.6 0.00 0.00 0.00 73 1013.7
20260508071555 59 0 0.0 0.9 0.00 0.00 0.00 73 1013.4
20260508070056 58 0 0.0 0.0 0.00 0.00 0.00 72 1013.3
20260508064550 55 0 0.0 0.0 0.00 0.00 0.00 72 1013.2
20260508063043 54 0 0.0 0.0 0.00 0.00 0.00 71 1012.9
20260508061547 53 0 0.0 0.0 0.00 0.00 0.00 71 1012.8
20260508060052 52 0 0.0 0.0 0.00 0.00 0.00 70 1012.8
20260508054551 51 0 0.0 0.0 0.00 0.00 0.00 70 1012.5
20260508053052 52 0 0.0 0.0 0.00 0.00 0.00 69 1012.3
20260508051547 52 0 0.0 0.9 0.00 0.00 0.00 69 1012.4
20260508050047 52 198 0.9 1.7 0.00 0.00 0.00 69 1012.4
20260508044551 52 198 0.0 0.9 0.00 0.00 0.00 68 1012.4
20260508043050 53 198 3.5 4.3 0.00 0.00 0.00 68 1011.9
20260508041548 53 198 0.9 1.7 0.00 0.00 0.00 68 1012.5
20260508040048 54 198 0.9 1.7 0.00 0.00 0.00 67 1012.7
20260508034545 55 198 0.9 1.7 0.00 0.00 0.00 67 1012.5
20260508033109 56 198 0.9 0.9 0.00 0.00 0.00 67 1012.4
20260508031545 57 198 0.0 0.9 0.00 0.00 0.00 67 1012.3
20260508030101 57 0 0.0 1.7 0.00 0.00 0.00 67 1012.1
20260508024607 56 198 0.0 0.9 0.00 0.00 0.00 67 1012.0
20260508023045 56 0 0.0 1.7 0.00 0.00 0.00 67 1012.0
20260508021544 57 198 2.6 4.3 0.00 0.00 0.00 66 1011.5
20260508020103 57 198 0.9 2.6 0.00 0.00 0.00 66 1012.2
20260508014555 57 198 1.7 3.5 0.00 0.00 0.00 66 1012.7
20260508013047 57 198 2.6 5.2 0.00 0.00 0.00 66 1013.0
20260508011547 58 198 2.6 4.3 0.00 0.00 0.00 65 1012.9
20260508010044 58 198 0.0 0.9 0.00 0.00 0.00 65 1012.5
20260508004544 58 0 0.0 3.5 0.00 0.00 0.00 65 1012.7
20260508003050 58 0 0.0 1.7 0.00 0.00 0.00 65 1013.2
20260508001551 58 198 1.7 4.3 0.00 0.00 0.00 65 1012.9
20260508000043 58 198 0.9 1.7 0.00 0.00 0.00 64 1013.2
20260507234548 59 198 1.7 3.5 0.00 0.00 0.00 64 1013.1
20260507233044 59 198 0.9 4.3 0.00 0.00 0.00 64 1013.1
20260507231546 59 198 1.7 2.6 0.00 0.00 0.00 64 1012.8
20260507230051 59 198 0.9 2.6 0.00 0.00 0.00 64 1012.8
20260507224545 60 198 0.9 2.6 0.00 0.00 0.00 64 1013.3
20260507223043 60 198 3.5 5.2 0.00 0.00 0.00 64 1013.7
20260507221548 61 198 1.7 2.6 0.00 0.00 0.00 64 1013.3
20260507220051 61 198 0.9 1.7 0.00 0.00 0.00 64 1013.5
20260507214547 61 198 0.0 2.6 0.00 0.00 0.00 64 1013.4
20260507213053 61 198 0.0 2.6 0.00 0.00 0.00 64 1013.4
20260507211554 61 198 0.9 1.7 0.00 0.00 0.00 64 1013.2
20260507210050 62 198 1.7 3.5 0.00 0.00 0.00 64 1013.2
20260507204548 62 198 0.9 3.5 0.00 0.00 0.00 64 1013.0
20260507203044 63 198 1.7 6.1 0.00 0.00 0.00 64 1012.9
20260507201552 63 198 2.6 5.2 0.00 0.00 0.00 64 1012.9
20260507200046 63 198 2.6 6.1 0.00 0.00 0.00 64 1012.7
20260507194548 63 198 3.5 7.8 0.00 0.00 0.00 63 1012.5
20260507193049 63 198 4.3 7.8 0.00 0.00 0.00 63 1012.3
20260507191546 63 198 5.2 10.4 0.00 0.00 0.00 63 1012.1
20260507190044 64 198 5.2 11.3 0.00 0.00 0.00 62 1012.0
20260507184549 64 199 3.5 8.7 0.00 0.00 0.00 62 1011.7
20260507183055 65 199 4.3 10.4 0.00 0.00 0.00 62 1011.5
20260507181546 66 200 3.5 7.8 0.00 0.00 0.00 62 1011.2
20260507180055 67 200 3.5 7.8 0.00 0.00 0.00 62 1011.3
20260507174546 68 200 4.3 8.7 0.00 0.00 0.00 63 1011.2
20260507173056 68 200 3.5 7.8 0.00 0.00 0.00 63 1011.3
20260507171552 68 200 5.2 13.0 0.00 0.00 0.00 63 1011.4
20260507170055 68 200 7.0 11.3 0.00 0.00 0.00 63 1011.4
20260507164544 68 200 8.7 13.9 0.00 0.00 0.00 63 1011.5
20260507163048 67 195 8.7 13.0 0.00 0.00 0.00 63 1011.5
20260507161551 68 181 7.0 14.8 0.00 0.00 0.00 63 1011.5
20260507160053 68 177 8.7 16.5 0.00 0.00 0.00 63 1011.4
20260507154548 68 182 7.8 17.4 0.00 0.00 0.00 63 1011.4
20260507153102 68 167 7.0 13.0 0.00 0.00 0.00 63 1011.4
20260507151542 68 159 6.1 12.2 0.00 0.00 0.00 63 1011.6
20260507150053 68 151 7.8 13.0 0.00 0.00 0.00 63 1011.7
20260507144545 69 153 7.0 11.3 0.00 0.00 0.00 63 1011.9
20260507143057 69 153 5.2 10.4 0.00 0.00 0.00 63 1011.9
20260507141548 69 153 7.0 9.6 0.00 0.00 0.00 63 1012.1
20260507140046 68 151 4.3 11.3 0.00 0.00 0.00 63 1012.0
20260507134541 69 150 7.0 11.3 0.00 0.00 0.00 63 1012.3
20260507133049 69 150 7.0 12.2 0.00 0.00 0.00 64 1012.3
20260507131549 69 148 6.1 10.4 0.00 0.00 0.00 64 1012.4
20260507130100 69 147 5.2 11.3 0.00 0.00 0.00 64 1012.6
20260507124552 68 146 6.1 12.2 0.00 0.00 0.00 64 1012.5
20260507123049 68 145 4.3 12.2 0.00 0.00 0.00 65 1012.9
20260507121554 68 140 5.2 12.2 0.00 0.00 0.00 65 1013.2
20260507120047 67 131 5.2 13.0 0.00 0.00 0.00 65 1013.3
20260507114545 67 146 6.1 12.2 0.00 0.00 0.00 65 1013.4
20260507113052 67 152 4.3 11.3 0.00 0.00 0.00 66 1013.4
20260507111544 66 143 8.7 13.9 0.00 0.00 0.00 66 1013.2
20260507110056 67 103 7.8 13.0 0.00 0.00 0.00 66 1013.2
20260507104555 66 101 7.0 12.2 0.00 0.00 0.00 66 1013.1
20260507103112 65 98 6.1 10.4 0.00 0.00 0.00 67 1013.1
20260507101545 65 98 6.1 11.3 0.00 0.00 0.00 67 1013.3
20260507094553 64 98 4.3 9.6 0.00 0.00 0.00 67 1013.2
20260507093045 64 98 6.1 10.4 0.00 0.00 0.00 67 1013.3
20260507091544 63 98 5.2 10.4 0.00 0.00 0.00 67 1013.2
20260507090038 63 98 4.3 7.8 0.00 0.00 0.00 67 1013.3
20260507084548 63 98 2.6 5.2 0.00 0.00 0.00 67 1013.1